Regional Weather Roundup
Issued by NWS

Home | Current Version | Previous Version | Graphics & Text | Print | Product List | Glossary On
Versions: 1 2 3 4 5 6 7 8 9 10 11 12 13 14 15 16 17 18 19 20 21 22 23 24 25 26 27 28 29 30 31 32 33 34 35 36 37 38 39 40 41 42 43 44 45 46 47 48 49 50
182
ASUS43 KMKX 010111
RWRWI

WISCONSIN REGIONAL WEATHER ROUNDUP
NATIONAL WEATHER SERVICE MILWAUKEE/SULLIVAN WI
800 PM CDT TUE MAY 31 2016

NOTE: "FAIR" INDICATES FEW OR NO CLOUDS BELOW 12,000 FEET WITH NO
SIGNIFICANT WEATHER AND/OR OBSTRUCTIONS TO VISIBILITY.

WIZ001-002-006>008-014>016-023>028-010200-
NORTHWEST WISCONSIN

CITY           SKY/WX    TMP DP  RH WIND       PRES   REMARKS
SUPERIOR ARPT  CLOUDY    42  40  93 NE9G17    29.92R
ASHLAND        LGT RAIN  47  46  97 NE9       29.89F
HAYWARD        CLOUDY    63  60  90 SE9       29.87S
SIREN          CLOUDY    69  61  76 S7        29.85S
CUMBERLAND     CLOUDY    61  59  94 SE8       29.88R
RICE LAKE      CLOUDY    62  59  92 SE9       29.89S
CHETEK         CLOUDY    61  61  99 SE5       29.88S
LADYSMITH      LGT RAIN  61  59  95 E7        29.92S
EAU CLAIRE     LGT RAIN  63  61  93 SE5       29.87R
MENOMONIE      CLOUDY    64  64 100 SE6       29.88R
NEW RICHMOND   CLOUDY    66  59  77 S6        29.86R
OSCEOLA        CLOUDY    69  62  77 S6        29.87S
$$

WIZ003>005-009-010-017-018-010200-
NORTH CENTRAL WISCONSIN

CITY           SKY/WX    TMP DP  RH WIND       PRES   REMARKS
MANITOWISH WTR LGT RAIN  61  60  98 W6        29.95R
ARBOR VITAE    CLOUDY    64  57  76 S3        29.95R
WOODRUFF       CLOUDY    64  57  76 S3        29.95R
RHINELANDER    LGT RAIN  62  55  77 SE8       29.95F
EAGLE RIVER    LGT RAIN  61  52  72 SE5       29.95F
LAND O LAKES   LGT RAIN  64  52  66 S5        29.96S
PHILLIPS       RAIN      60  59  99 S3        29.93F
TOMAHAWK       CLOUDY    62  55  77 SE3       29.94S
MEDFORD        HVY RAIN  61  61 100 W7        29.93S
MERRILL        CLOUDY    64  58  82 E5        29.94S
$$

WIZ029-030-035-036-043>047-010200-
CENTRAL WISCONSIN

CITY           SKY/WX    TMP DP  RH WIND       PRES   REMARKS
WAUSAU         CLOUDY    68  58  70 SE9       29.91S
MOSINEE        MOCLDY    66  61  82 SE7       29.94S
MARSHFIELD     LGT RAIN  67  62  84 S6        29.92R
STEVENS POINT  CLOUDY    65  59  80 SE6       29.94S
WAUPACA        CLOUDY    69  61  74 SE6       29.94S
WAUTOMA        CLOUDY   N/A N/A N/A SE5       29.93F
WISC RAPIDS    CLOUDY    68  59  73 SE6       29.93R
CAMP DOUGLAS   MOCLDY    70  70 100 W10       29.92R
$$

WIZ011>013-019>022-031-037>040-048>050-010200-
NORTHEAST WISCONSIN

CITY           SKY/WX    TMP DP  RH WIND       PRES   REMARKS
ANTIGO         CLOUDY    61  57  85 SE12      29.96S
SHAWANO        CLOUDY    64  58  78 E7        29.96S
OCONTO         CLOUDY    61  58  90 E3        29.97S
STURGEON BAY   CLOUDY    60  48  64 E9        29.98F
GREEN BAY      CLOUDY    64  58  80 E8        29.96S
MANITOWOC      CLOUDY    58  50  75 CALM      29.99S
APPLETON       MOCLDY    66  57  72 S8        29.94S
CLINTONVILLE   CLOUDY    64  55  72 SE6       29.95S
OSHKOSH        CLOUDY    66  60  81 S7        29.94S
$$

WIZ032>034-041-042-053>061-010200-
SOUTHWEST WISCONSIN

CITY           SKY/WX    TMP DP  RH WIND       PRES   REMARKS
LA CROSSE      LGT RAIN  64  63  96 SE8       29.90R
SPARTA         RAIN      61  61 100 SE5       29.93S
VIROQUA        CLOUDY    63  63 100 SW5       29.92F VSB 1/2
BOSCOBEL       NOT AVBL
PRAIRIE DU CHI HVY RAIN  65  63  94 W5        29.92R
PLATTEVILLE    CLOUDY    69  64  84 SE9       29.91R
$$

WIZ056-057-062-063-064-067-068-010200-
SOUTH CENTRAL WISCONSIN

CITY           SKY/WX    TMP DP  RH WIND       PRES   REMARKS
REEDSBURG      CLOUDY    68  62  80 S3        29.91S
BARABOO/DELLS  CLOUDY    68  59  73 SE7       29.91F
LONE ROCK      CLOUDY    70  61  73 SE6       29.91S
MINERAL POINT  CLOUDY    68  63  83 SE7       29.92S
MADISON        CLOUDY    69  59  70 SE13      29.93R
MIDDLETON      CLOUDY    70  60  71 SE8       29.93S
WATERTOWN      CLOUDY    65  64  95 SE8       29.93F
MONROE         CLOUDY    66  61  82 SE12      29.94R
JANESVILLE     MOCLDY    68  61  77 SE8       29.93S
$$

WIZ051-052-058>065-066-070>072-010200-
SOUTHEAST WISCONSIN

CITY           SKY/WX    TMP DP  RH WIND       PRES   REMARKS
MILWAUKEE      CLOUDY    66  61  84 SE6       29.96F
WAUKESHA       CLOUDY    63  61  94 E3        29.97F
MILWAUKEE/TIMM CLOUDY    66  57  72 E7        29.96F
RACINE         CLOUDY    65  60  84 E7        29.98F
BURLINGTON     CLOUDY    64  61  89 SE3       29.95F
KENOSHA        CLOUDY    67  61  81 E8        29.96F
FOND DU LAC    CLOUDY    66  60  81 S8        29.94F
SHEBOYGAN      CLOUDY    57  50  77 E7        29.98S
WEST BEND      CLOUDY    63  61  94 SE6       29.95F
JUNEAU         CLOUDY    65  60  83 SE8       29.95S
$$

LSZ147-162-010200-
LAKE SUPERIOR

STATION/POSITION TIME  TEMP    WIND        PRES    WAVE
                       AIR SEA DIR/SP/G            HT/PER
                 (UTC) (F)     (DEG/KT/KT) (MB)    (FT/S)
W MID LAKE BUOY  0050   43 38   80/ 14/ 17 1013.2S   4/ 5
DEVILS ISLAND    0100   42      60/ 10/ 12 1013.2F
SAXON HARBOR     0000   49     340/  1/  2 1011.9F
$$

LMZ867-665-643>646-010200-
LAKE MICHIGAN

STATION/POSITION TIME  TEMP    WIND        PRES    WAVE
                       AIR SEA DIR/SP/G            HT/PER
                 (UTC) (F)     (DEG/KT/KT) (MB)    (FT/S)
CHAMBERS ISLAND  0000   63      80/  7/ 10 1015.6F
N MID LAKE BUOY  0050   53 48  100/  8/  8 1015.5R   1
NORTHPORT PIER   0000   57     140/  3/  5 1015.9S
SISTER BAY       0020   60     100/ 12/ 16   N/A
ALGOMA LAKESHORE 0017           50/ 11/ 15   N/A
KEWAUNEE LAKESHO 0000                      1015.1
SHEBOYGAN LAKESH 0100   51      50/  3/  3 1015.9F
PORT WASHINGTON  0100   55      30/  3/ 10 1015.6F
S MID LAKE BUOY  0050   56 55  360/  4/  4 1015.4R   1/ 3
KENOSHA   LAKESH 0100   60     120/  7/  9 1014.6F
$$

TC  - TEMPERATURE IN CELSIUS
VSB - VISIBILITY IN STATUTE MILES
WCI - WIND CHILL INDEX
HX  - HEAT INDEX





USA.gov is the U.S. government's official web portal to all federal, state and local government web resources and services.